Location: Grasslands National Park East Block
(49.0708°N, 106.5295°W)
Time: 03:45:27
(UTC-06:00)

Transit 2A - All Passes

Search period start: 24 September 2019 00:00
Search period end: 04 October 2019 00:00
Orbit: 599 x 960 km, 66.7° (Epoch: 23 September)

Date Brightness Start Highest point End Pass type
(mag) Time Alt. Az. Time Alt. Az. Time Alt. Az.
24 Sep - 02:05:42 10° S 02:10:51 34° ESE 02:15:35 10° NE visible
24 Sep - 03:48:29 10° WSW 03:53:58 49° NW 03:58:55 10° NNE visible
24 Sep - 05:35:08 10° WNW 05:38:16 16° NNW 05:41:16 10° NNE visible
24 Sep - 09:05:56 10° NNW 09:08:58 17° NNE 09:11:53 10° ENE daylight
24 Sep - 10:48:30 10° NNW 10:53:05 67° NE 10:57:25 10° SE daylight
24 Sep - 12:32:47 10° WNW 12:35:38 17° WSW 12:38:24 10° SSW daylight
25 Sep - 01:32:18 10° SSE 01:36:52 25° ESE 01:41:08 10° ENE visible
25 Sep - 03:14:07 10° SW 03:19:46 65° NW 03:24:52 10° NNE visible
25 Sep - 05:00:07 10° WNW 05:03:50 19° NNW 05:07:19 10° NNE visible
25 Sep - 08:32:02 10° N 08:34:31 14° NNE 08:36:54 10° NE daylight
25 Sep - 10:14:26 10° NNW 10:18:54 47° NE 10:23:06 10° ESE daylight
25 Sep - 11:58:06 10° WNW 12:01:45 24° WSW 12:05:15 10° SSW daylight
26 Sep - 00:59:13 10° SSE 01:02:56 18° ESE 01:06:27 10° ENE visible
26 Sep - 02:39:53 10° SW 02:45:37 87° NW 02:50:47 10° NE visible
26 Sep - 04:25:13 10° W 04:29:26 23° NW 04:33:23 10° NNE visible
26 Sep - 06:13:53 10° NNW 06:14:30 10° N 06:15:06 10° N visible
26 Sep - 07:58:10 10° N 08:00:00 12° NNE 08:01:48 10° NE daylight
26 Sep - 09:40:24 10° NNW 09:44:39 35° NE 09:48:40 10° ESE daylight
26 Sep - 11:23:40 10° NW 11:27:48 36° WSW 11:31:45 10° S daylight
27 Sep - 00:26:49 10° SE 00:29:03 12° ESE 00:31:12 10° E visible
27 Sep - 02:05:49 10° SSW 02:11:30 70° ESE 02:16:38 10° NE visible
27 Sep - 03:50:24 10° W 03:55:05 28° NW 03:59:24 10° NNE visible
27 Sep - 05:38:24 10° NNW 05:39:56 11° NNW 05:41:26 10° N visible
27 Sep - 07:24:25 10° N 07:25:27 11° NNE 07:26:29 10° NNE daylight
27 Sep - 09:06:24 10° NNW 09:10:21 27° NE 09:14:05 10° E daylight
27 Sep - 10:49:23 10° NW 10:53:48 53° WSW 10:58:00 10° SSE daylight
28 Sep - 01:31:56 10° SSW 01:37:26 51° ESE 01:42:26 10° NE visible
28 Sep - 03:15:44 10° WSW 03:20:47 35° NW 03:25:25 10° NNE visible
28 Sep - 05:03:09 10° NW 05:05:24 13° NNW 05:07:34 10° N visible
28 Sep - 08:32:26 10° NNW 08:35:59 21° NNE 08:39:22 10° E daylight
28 Sep - 10:15:11 10° NW 10:19:44 79° SW 10:24:03 10° SSE daylight
29 Sep - 00:58:13 10° S 01:03:23 36° ESE 01:08:08 10° NE visible
29 Sep - 02:41:11 10° WSW 02:46:32 46° NW 02:51:24 10° NNE visible
29 Sep - 04:28:00 10° WNW 04:30:54 15° NNW 04:33:41 10° N visible
29 Sep - 07:58:30 10° NNW 08:01:35 17° NNE 08:04:32 10° ENE daylight
29 Sep - 09:41:03 10° NNW 09:45:36 72° NE 09:49:56 10° SE daylight
29 Sep - 11:25:33 10° WNW 11:28:06 15° WSW 11:30:38 10° SW daylight
30 Sep - 00:24:45 10° SSE 00:29:24 26° ESE 00:33:43 10° ENE visible
30 Sep - 02:06:47 10° SW 02:12:20 61° NW 02:17:21 10° NNE visible
30 Sep - 03:52:57 10° WNW 03:56:27 18° NNW 03:59:46 10° NNE visible
30 Sep - 07:24:35 10° N 07:27:07 14° NNE 07:29:34 10° ENE daylight
30 Sep - 09:06:58 10° NNW 09:11:26 50° NE 09:15:40 10° SE daylight
30 Sep - 10:50:45 10° WNW 10:54:13 22° WSW 10:57:36 10° SSW daylight
30 Sep - 23:51:36 10° SSE 23:55:28 19° ESE 23:59:05 10° ENE night (unlit)
01 Oct - 01:32:32 10° SW 01:38:11 82° NW 01:43:17 10° NE visible
01 Oct - 03:18:00 10° W 03:22:02 21° NW 03:25:49 10° NNE visible
01 Oct - 06:50:44 10° N 06:52:37 12° NNE 06:54:27 10° NE daylight
01 Oct - 08:32:56 10° NNW 08:37:12 37° NE 08:41:15 10° ESE daylight
01 Oct - 10:16:17 10° NW 10:20:17 33° WSW 10:24:09 10° S daylight
01 Oct - 23:19:02 10° SE 23:21:34 13° ESE 23:24:00 10° ENE night (unlit)
02 Oct - 00:58:26 10° SSW 01:04:04 75° ESE 01:09:09 10° NE visible
02 Oct - 02:43:11 10° W 02:47:41 26° NW 02:51:51 10° NNE visible
02 Oct - 04:31:25 10° NNW 04:32:34 11° NNW 04:33:42 10° N visible
02 Oct - 06:17:02 10° N 06:18:05 11° NNE 06:19:08 10° NNE visible
02 Oct - 07:58:57 10° NNW 08:02:55 28° NE 08:06:41 10° E daylight
02 Oct - 09:41:57 10° NW 09:46:17 49° WSW 09:50:27 10° SSE daylight
03 Oct - 00:24:29 10° SSW 00:29:58 54° ESE 00:34:58 10° NE visible
03 Oct - 02:08:28 10° WSW 02:13:23 33° NW 02:17:53 10° NNE visible
03 Oct - 03:56:03 10° NW 03:58:02 12° NNW 03:59:57 10° N visible
03 Oct - 07:24:58 10° NNW 07:28:34 22° NE 07:32:00 10° E daylight
03 Oct - 09:07:45 10° NW 09:12:14 73° WSW 09:16:32 10° SSE daylight
